Time,TemperatureF,DewpointF,PressureIn,WindDirection,WindDirectionDegrees,WindSpeedMPH,WindSpeedGustMPH,Humidity,HourlyPrecipIn,Conditions,Clouds,dailyrainin,SoftwareType,DateUTC
2013-06-23 00:01:00,73.0,63.0,30.09,South,170,8.0,12.0,72,-99.99,,,-99.99,,2013-06-23 05:01:00,
2013-06-23 00:10:00,73.0,63.0,30.09,South,170,8.0,12.0,72,-99.99,,,-99.99,,2013-06-23 05:10:00,
2013-06-23 00:21:00,73.0,63.0,30.09,South,170,8.0,12.0,72,-99.99,,,-99.99,,2013-06-23 05:21:00,
2013-06-23 00:31:00,72.0,64.0,30.09,South,170,8.0,12.0,75,-99.99,,,-99.99,,2013-06-23 05:31:00,
2013-06-23 00:41:00,72.0,64.0,30.09,South,170,8.0,12.0,75,-99.99,,,-99.99,,2013-06-23 05:41:00,
2013-06-23 00:51:00,72.0,64.0,30.09,South,170,8.0,12.0,75,-99.99,,,-99.99,,2013-06-23 05:51:00,
2013-06-23 01:02:00,71.0,64.0,30.08,South,170,6.0,9.0,78,-99.99,,,-99.99,,2013-06-23 06:02:00,
2013-06-23 01:11:00,71.0,64.0,30.08,South,170,6.0,9.0,78,-99.99,,,-99.99,,2013-06-23 06:11:00,
2013-06-23 01:22:00,71.0,64.0,30.08,SSE,160,8.0,12.0,78,-99.99,,,-99.99,,2013-06-23 06:22:00,
2013-06-23 01:32:00,71.0,64.0,30.08,SSE,160,8.0,12.0,78,-99.99,,,-99.99,,2013-06-23 06:32:00,
2013-06-23 01:43:00,71.0,64.0,30.07,SSE,160,9.0,12.0,77,-99.99,,,-99.99,,2013-06-23 06:43:00,
2013-06-23 01:52:00,71.0,64.0,30.07,South,170,9.0,12.0,77,-99.99,,,-99.99,,2013-06-23 06:52:00,
2013-06-23 02:02:00,71.0,64.0,30.07,South,170,9.0,12.0,77,-99.99,,,-99.99,,2013-06-23 07:02:00,
2013-06-23 02:12:00,71.0,64.0,30.07,South,170,8.0,10.0,77,-99.99,,,-99.99,,2013-06-23 07:12:00,
2013-06-23 02:22:00,71.0,63.0,30.07,South,180,8.0,10.0,75,-99.99,,,-99.99,,2013-06-23 07:22:00,
2013-06-23 02:33:00,71.0,63.0,30.06,South,180,7.0,9.0,77,-99.99,,,-99.99,,2013-06-23 07:33:00,
2013-06-23 02:42:00,71.0,63.0,30.06,South,180,7.0,9.0,77,-99.99,,,-99.99,,2013-06-23 07:42:00,
2013-06-23 02:53:00,71.0,63.0,30.06,South,180,7.0,8.0,77,-99.99,,,-99.99,,2013-06-23 07:53:00,
2013-06-23 03:02:00,71.0,63.0,30.06,SSE,160,8.0,10.0,76,-99.99,,,-99.99,,2013-06-23 08:02:00,
2013-06-23 03:11:00,71.0,63.0,30.06,SSE,160,8.0,10.0,76,-99.99,,,-99.99,,2013-06-23 08:11:00,
2013-06-23 03:22:00,69.0,63.0,30.08,SSE,160,15.0,23.0,81,-99.99,,,-99.99,,2013-06-23 08:22:00,
2013-06-23 03:33:00,69.0,64.0,30.09,SSE,160,13.0,16.0,81,-99.99,,,-99.99,,2013-06-23 08:33:00,
2013-06-23 03:42:00,69.0,64.0,30.09,SSE,160,13.0,16.0,81,-99.99,,,-99.99,,2013-06-23 08:42:00,
2013-06-23 03:53:00,69.0,64.0,30.09,SSE,160,12.0,16.0,82,-99.99,,,-99.99,,2013-06-23 08:53:00,
2013-06-23 04:02:00,69.0,64.0,30.07,SSE,160,14.0,20.0,83,-99.99,,,-99.99,,2013-06-23 09:02:00,
2013-06-23 04:12:00,69.0,64.0,30.07,SSE,160,14.0,20.0,83,-99.99,,,-99.99,,2013-06-23 09:12:00,
2013-06-23 04:22:00,69.0,64.0,30.07,SSE,160,15.0,20.0,82,-99.99,,,-99.99,,2013-06-23 09:22:00,
2013-06-23 04:34:00,69.0,64.0,30.08,South,170,10.0,14.0,82,-99.99,,,-99.99,,2013-06-23 09:34:00,
2013-06-23 04:43:00,69.0,64.0,30.08,South,170,10.0,14.0,82,-99.99,,,-99.99,,2013-06-23 09:43:00,
2013-06-23 04:53:00,69.0,64.0,30.09,South,190,9.0,12.0,82,-99.99,,,-99.99,,2013-06-23 09:53:00,
2013-06-23 05:02:00,68.0,64.0,30.09,West,270,6.0,7.0,86,-99.99,,,-99.99,,2013-06-23 10:02:00,
2013-06-23 05:11:00,68.0,64.0,30.09,West,270,6.0,7.0,86,-99.99,,,-99.99,,2013-06-23 10:11:00,
2013-06-23 05:22:00,68.0,64.0,30.09,South,180,7.0,9.0,85,-99.99,,,-99.99,,2013-06-23 10:22:00,
2013-06-23 05:34:00,69.0,64.0,30.10,South,190,5.0,6.0,84,-99.99,,,-99.99,,2013-06-23 10:34:00,
2013-06-23 05:43:00,69.0,64.0,30.10,South,190,5.0,6.0,84,-99.99,,,-99.99,,2013-06-23 10:43:00,
2013-06-23 05:52:00,67.0,64.0,30.11,SW,230,3.0,7.0,88,-99.99,,,-99.99,,2013-06-23 10:52:00,
2013-06-23 06:01:00,69.0,64.0,30.09,SSE,160,5.0,8.0,85,-99.99,,,-99.99,,2013-06-23 11:01:00,
2013-06-23 06:11:00,69.0,64.0,30.09,SSE,160,5.0,8.0,85,-99.99,,,-99.99,,2013-06-23 11:11:00,
2013-06-23 06:22:00,68.0,64.0,30.10,South,190,2.0,3.0,86,-99.99,,,-99.99,,2013-06-23 11:22:00,
2013-06-23 06:33:00,68.0,64.0,30.09,South,180,3.0,6.0,86,-99.99,,,-99.99,,2013-06-23 11:33:00,
2013-06-23 06:43:00,68.0,64.0,30.09,South,180,3.0,6.0,86,-99.99,,,-99.99,,2013-06-23 11:43:00,
2013-06-23 06:53:00,69.0,64.0,30.08,SSE,150,10.0,14.0,84,-99.99,,,-99.99,,2013-06-23 11:53:00,
2013-06-23 07:01:00,69.0,64.0,30.09,SSE,160,8.0,12.0,84,-99.99,,,-99.99,,2013-06-23 12:01:00,
2013-06-23 07:11:00,69.0,64.0,30.09,SSE,160,8.0,12.0,84,-99.99,,,-99.99,,2013-06-23 12:11:00,
2013-06-23 07:22:00,68.0,64.0,30.10,SSW,210,2.0,5.0,86,-99.99,,,-99.99,,2013-06-23 12:22:00,
2013-06-23 07:33:00,68.0,64.0,30.10,SSW,210,6.0,8.0,87,-99.99,,,-99.99,,2013-06-23 12:33:00,
2013-06-23 07:42:00,68.0,64.0,30.10,SSW,210,6.0,8.0,87,-99.99,,,-99.99,,2013-06-23 12:42:00,
2013-06-23 07:53:00,69.0,64.0,30.09,SSE,150,8.0,13.0,85,-99.99,,,-99.99,,2013-06-23 12:53:00,
2013-06-23 08:01:00,69.0,65.0,30.09,SSE,150,7.0,13.0,85,-99.99,,,-99.99,,2013-06-23 13:01:00,
2013-06-23 08:11:00,69.0,65.0,30.09,SSE,150,7.0,13.0,85,-99.99,,,-99.99,,2013-06-23 13:11:00,
2013-06-23 08:23:00,70.0,64.0,30.09,SE,140,9.0,14.0,81,-99.99,,,-99.99,,2013-06-23 13:23:00,
2013-06-23 08:33:00,70.0,65.0,30.09,SSE,150,10.0,15.0,82,-99.99,,,-99.99,,2013-06-23 13:33:00,
2013-06-23 08:43:00,70.0,65.0,30.09,SSE,150,10.0,15.0,82,-99.99,,,-99.99,,2013-06-23 13:43:00,
2013-06-23 08:53:00,71.0,65.0,30.08,SSE,160,9.0,13.0,79,-99.99,,,-99.99,,2013-06-23 13:53:00,
2013-06-23 09:04:00,72.0,65.0,30.07,SSE,160,12.0,15.0,77,-99.99,,,-99.99,,2013-06-23 14:04:00,
2013-06-23 09:11:00,72.0,65.0,30.07,SSE,160,12.0,15.0,77,-99.99,,,-99.99,,2013-06-23 14:11:00,
2013-06-23 09:21:00,73.0,65.0,30.06,SSE,160,13.0,17.0,75,-99.99,,,-99.99,,2013-06-23 14:21:00,
2013-06-23 09:33:00,73.0,64.0,30.05,SSE,150,16.0,22.0,72,-99.99,,,-99.99,,2013-06-23 14:33:00,
2013-06-23 09:44:00,73.0,64.0,30.05,SSE,150,16.0,22.0,72,-99.99,,,-99.99,,2013-06-23 14:44:00,
2013-06-23 09:52:00,74.0,64.0,30.05,SSE,160,16.0,24.0,71,-99.99,,,-99.99,,2013-06-23 14:52:00,
2013-06-23 10:05:00,75.0,65.0,30.04,SSE,160,15.0,21.0,70,-99.99,,,-99.99,,2013-06-23 15:05:00,
2013-06-23 10:11:00,75.0,65.0,30.04,SSE,160,15.0,21.0,70,-99.99,,,-99.99,,2013-06-23 15:11:00,
2013-06-23 10:22:00,76.0,65.0,30.04,South,170,16.0,23.0,69,-99.99,,,-99.99,,2013-06-23 15:22:00,
2013-06-23 10:34:00,76.0,65.0,30.04,South,170,15.0,21.0,69,-99.99,,,-99.99,,2013-06-23 15:34:00,
2013-06-23 10:43:00,76.0,65.0,30.04,South,170,15.0,21.0,69,-99.99,,,-99.99,,2013-06-23 15:43:00,
2013-06-23 10:52:00,77.0,65.0,30.04,SSE,160,15.0,21.0,68,-99.99,,,-99.99,,2013-06-23 15:52:00,
2013-06-23 11:04:00,77.0,65.0,30.06,South,180,17.0,22.0,67,-99.99,,,-99.99,,2013-06-23 16:04:00,
2013-06-23 11:11:00,77.0,65.0,30.06,South,180,17.0,22.0,67,-99.99,,,-99.99,,2013-06-23 16:11:00,
2013-06-23 11:22:00,78.0,65.0,30.06,South,190,15.0,17.0,64,-99.99,,,-99.99,,2013-06-23 16:22:00,
2013-06-23 11:33:00,78.0,65.0,30.06,South,180,14.0,17.0,64,-99.99,,,-99.99,,2013-06-23 16:33:00,
2013-06-23 11:42:00,78.0,65.0,30.06,South,180,14.0,17.0,64,-99.99,,,-99.99,,2013-06-23 16:42:00,
2013-06-23 11:52:00,79.0,64.0,30.06,South,190,14.0,18.0,61,-99.99,,,-99.99,,2013-06-23 16:52:00,
2013-06-23 12:11:00,79.0,64.0,30.07,SSW,200,12.0,15.0,60,-99.99,,,-99.99,,2013-06-23 17:11:00,
2013-06-23 12:22:00,78.0,64.0,30.06,SSW,210,9.0,12.0,62,-99.99,,,-99.99,,2013-06-23 17:22:00,
2013-06-23 12:33:00,80.0,65.0,30.06,South,180,15.0,21.0,59,-99.99,,,-99.99,,2013-06-23 17:33:00,
2013-06-23 12:43:00,80.0,65.0,30.06,South,180,15.0,21.0,59,-99.99,,,-99.99,,2013-06-23 17:43:00,
2013-06-23 12:52:00,79.0,65.0,30.06,South,190,15.0,21.0,61,-99.99,,,-99.99,,2013-06-23 17:52:00,
2013-06-23 13:01:00,80.0,65.0,30.06,South,180,13.0,18.0,61,-99.99,,,-99.99,,2013-06-23 18:01:00,
2013-06-23 13:11:00,80.0,65.0,30.06,South,180,13.0,18.0,61,-99.99,,,-99.99,,2013-06-23 18:11:00,
2013-06-23 13:22:00,80.0,65.0,30.06,South,190,14.0,21.0,61,-99.99,,,-99.99,,2013-06-23 18:22:00,
2013-06-23 13:33:00,81.0,64.0,30.06,South,190,15.0,18.0,57,-99.99,,,-99.99,,2013-06-23 18:33:00,
2013-06-23 13:42:00,81.0,64.0,30.06,South,190,15.0,18.0,57,-99.99,,,-99.99,,2013-06-23 18:42:00,
2013-06-23 13:53:00,81.0,64.0,30.06,South,180,16.0,21.0,56,-99.99,,,-99.99,,2013-06-23 18:53:00,
2013-06-23 14:01:00,80.0,64.0,30.06,SSW,200,14.0,17.0,57,-99.99,,,-99.99,,2013-06-23 19:01:00,
2013-06-23 14:11:00,80.0,64.0,30.06,SSW,200,14.0,17.0,57,-99.99,,,-99.99,,2013-06-23 19:11:00,
2013-06-23 14:21:00,81.0,64.0,30.05,South,190,16.0,20.0,56,-99.99,,,-99.99,,2013-06-23 19:21:00,
2013-06-23 14:32:00,81.0,64.0,30.04,SSW,200,15.0,17.0,56,-99.99,,,-99.99,,2013-06-23 19:32:00,
2013-06-23 14:43:00,81.0,64.0,30.04,SSW,200,15.0,17.0,56,-99.99,,,-99.99,,2013-06-23 19:43:00,
2013-06-23 14:53:00,81.0,65.0,30.03,South,180,16.0,21.0,59,-99.99,,,-99.99,,2013-06-23 19:53:00,
2013-06-23 15:01:00,81.0,66.0,30.03,South,190,13.0,16.0,59,-99.99,,,-99.99,,2013-06-23 20:01:00,
2013-06-23 15:11:00,81.0,66.0,30.03,South,190,13.0,16.0,59,-99.99,,,-99.99,,2013-06-23 20:11:00,
2013-06-23 15:23:00,81.0,66.0,30.03,SSW,200,14.0,16.0,59,-99.99,,,-99.99,,2013-06-23 20:23:00,
2013-06-23 15:33:00,82.0,67.0,30.02,South,180,13.0,18.0,60,-99.99,,,-99.99,,2013-06-23 20:33:00,
2013-06-23 15:42:00,82.0,67.0,30.02,South,180,13.0,18.0,60,-99.99,,,-99.99,,2013-06-23 20:42:00,
2013-06-23 15:52:00,83.0,68.0,30.01,SSE,160,13.0,16.0,60,-99.99,,,-99.99,,2013-06-23 20:52:00,
2013-06-23 16:01:00,83.0,68.0,29.99,South,170,12.0,17.0,60,-99.99,,,-99.99,,2013-06-23 21:01:00,
2013-06-23 16:11:00,83.0,68.0,29.99,South,170,12.0,17.0,60,-99.99,,,-99.99,,2013-06-23 21:11:00,
2013-06-23 16:22:00,83.0,68.0,29.98,South,170,13.0,16.0,60,-99.99,,,-99.99,,2013-06-23 21:22:00,
2013-06-23 16:33:00,83.0,67.0,29.99,South,170,14.0,20.0,59,-99.99,,,-99.99,,2013-06-23 21:33:00,
2013-06-23 16:43:00,83.0,67.0,29.99,South,170,14.0,20.0,59,-99.99,,,-99.99,,2013-06-23 21:43:00,
2013-06-23 16:52:00,83.0,68.0,30.00,South,190,15.0,20.0,59,-99.99,,,-99.99,,2013-06-23 21:52:00,
2013-06-23 17:01:00,83.0,68.0,29.99,South,190,16.0,24.0,61,-99.99,,,-99.99,,2013-06-23 22:01:00,
2013-06-23 17:11:00,83.0,68.0,29.99,South,190,16.0,24.0,61,-99.99,,,-99.99,,2013-06-23 22:11:00,
2013-06-23 17:22:00,83.0,69.0,29.99,South,190,16.0,21.0,61,-99.99,,,-99.99,,2013-06-23 22:22:00,
2013-06-23 17:32:00,83.0,69.0,29.99,South,180,17.0,22.0,61,-99.99,,,-99.99,,2013-06-23 22:32:00,
2013-06-23 17:42:00,83.0,69.0,29.99,South,180,17.0,22.0,61,-99.99,,,-99.99,,2013-06-23 22:42:00,
2013-06-23 17:53:00,83.0,69.0,29.99,South,180,16.0,20.0,63,-99.99,,,-99.99,,2013-06-23 22:53:00,
2013-06-23 18:01:00,83.0,69.0,29.99,South,180,16.0,21.0,62,-99.99,,,-99.99,,2013-06-23 23:01:00,
2013-06-23 18:11:00,83.0,69.0,29.99,South,180,16.0,21.0,62,-99.99,,,-99.99,,2013-06-23 23:11:00,
2013-06-23 18:22:00,82.0,68.0,30.00,South,190,22.0,27.0,63,-99.99,,,-99.99,,2013-06-23 23:22:00,
2013-06-23 18:33:00,81.0,68.0,30.01,SSW,200,20.0,-999.0,63,-99.99,,,-99.99,,2013-06-23 23:33:00,
2013-06-23 18:44:00,81.0,68.0,30.01,SSW,200,20.0,-999.0,63,-99.99,,,-99.99,,2013-06-23 23:44:00,
2013-06-23 18:52:00,80.0,67.0,30.02,South,190,18.0,-999.0,63,-99.99,,,-99.99,,2013-06-23 23:52:00,
2013-06-23 19:01:00,80.0,68.0,30.02,South,190,15.0,20.0,67,-99.99,,,-99.99,,2013-06-24 00:01:00,
2013-06-23 19:11:00,80.0,68.0,30.02,South,190,15.0,20.0,67,-99.99,,,-99.99,,2013-06-24 00:11:00,
2013-06-23 19:22:00,80.0,68.0,30.02,South,190,15.0,20.0,67,-99.99,,,-99.99,,2013-06-24 00:22:00,
2013-06-23 19:33:00,80.0,68.0,30.00,South,170,15.0,21.0,67,-99.99,,,-99.99,,2013-06-24 00:33:00,
2013-06-23 19:42:00,80.0,68.0,30.00,South,170,15.0,21.0,67,-99.99,,,-99.99,,2013-06-24 00:42:00,
2013-06-23 19:52:00,80.0,69.0,30.01,South,170,15.0,18.0,68,-99.99,,,-99.99,,2013-06-24 00:52:00,
2013-06-23 20:01:00,80.0,69.0,30.01,South,170,15.0,18.0,68,-99.99,,,-99.99,,2013-06-24 01:01:00,
2013-06-23 20:11:00,80.0,69.0,30.01,South,170,15.0,18.0,68,-99.99,,,-99.99,,2013-06-24 01:11:00,
2013-06-23 20:21:00,80.0,66.0,30.00,South,170,17.0,23.0,63,-99.99,,,-99.99,,2013-06-24 01:21:00,
2013-06-23 20:32:00,79.0,64.0,30.00,South,180,17.0,22.0,61,-99.99,,,-99.99,,2013-06-24 01:32:00,
2013-06-23 20:42:00,79.0,64.0,30.00,South,180,17.0,22.0,61,-99.99,,,-99.99,,2013-06-24 01:42:00,
2013-06-23 20:52:00,78.0,64.0,29.98,South,170,15.0,21.0,62,-99.99,,,-99.99,,2013-06-24 01:52:00,
2013-06-23 21:01:00,78.0,64.0,29.98,South,170,15.0,21.0,62,-99.99,,,-99.99,,2013-06-24 02:01:00,
2013-06-23 21:11:00,78.0,64.0,29.98,South,170,15.0,21.0,62,-99.99,,,-99.99,,2013-06-24 02:11:00,
2013-06-23 21:21:00,77.0,65.0,29.99,SSE,160,15.0,21.0,65,-99.99,,,-99.99,,2013-06-24 02:21:00,
2013-06-23 21:33:00,77.0,65.0,29.99,SE,140,15.0,23.0,65,-99.99,,,-99.99,,2013-06-24 02:33:00,
2013-06-23 21:42:00,77.0,65.0,29.99,SE,140,15.0,23.0,65,-99.99,,,-99.99,,2013-06-24 02:42:00,
2013-06-23 21:52:00,77.0,65.0,29.99,SE,140,15.0,23.0,65,-99.99,,,-99.99,,2013-06-24 02:52:00,
2013-06-23 22:01:00,76.0,65.0,30.00,SSE,160,15.0,21.0,68,-99.99,,,-99.99,,2013-06-24 03:01:00,
2013-06-23 22:11:00,76.0,65.0,30.00,SSE,160,15.0,21.0,68,-99.99,,,-99.99,,2013-06-24 03:11:00,
2013-06-23 22:21:00,76.0,65.0,30.01,SSE,160,15.0,24.0,69,-99.99,,,-99.99,,2013-06-24 03:21:00,
2013-06-23 22:42:00,76.0,66.0,30.03,South,190,14.0,18.0,71,-99.99,,,-99.99,,2013-06-24 03:42:00,
2013-06-23 22:53:00,75.0,66.0,30.05,SSW,210,12.0,14.0,72,-99.99,,,-99.99,,2013-06-24 03:53:00,
2013-06-23 23:01:00,75.0,65.0,30.06,South,190,12.0,15.0,73,-99.99,,,-99.99,,2013-06-24 04:01:00,
2013-06-23 23:11:00,75.0,65.0,30.06,South,190,12.0,15.0,73,-99.99,,,-99.99,,2013-06-24 04:11:00,
2013-06-23 23:22:00,75.0,65.0,30.06,South,180,8.0,12.0,72,-99.99,,,-99.99,,2013-06-24 04:22:00,
2013-06-23 23:43:00,75.0,65.0,30.07,South,170,10.0,14.0,72,-99.99,,,-99.99,,2013-06-24 04:43:00,
2013-06-23 23:52:00,74.0,65.0,30.07,South,170,12.0,15.0,73,-99.99,,,-99.99,,2013-06-24 04:52:00,